Location: Bagnolo San Vito
(45.0833°N, 10.8833°E)
Time: 00:36:31
(UTC+00:00)

Cosmos 1066 Rocket - Pass Details

Date: 03 March 2021
Orbit: 799 x 894 km, 81.2° (Epoch: 17 April)

Event Time Altitude Azimuth Distance (km) Brightness Sun altitude
Rises 19:36:12 0° 347° (NNW) 3,442 7.8 -26.9°
Reaches altitude 10° 19:38:37 10° 345° (NNW) 2,515 7.1 -27.3°
Maximum altitude 19:44:19 70° 263° (W) 932 4.4 -28.2°
Enters shadow 19:45:44 51° 200° (SSW) 1,102 4.7 -28.4°
